Location: Crescent
(42.8242°N, 73.7329°W)
Time: 15:54:51
(UTC+00:00)

Courier 1B - Pass Details

Date: 21 February 2026
Orbit: 962 x 1208 km, 28.3° (Epoch: 8 March)

Event Time Altitude Azimuth Distance (km) Brightness Sun altitude
Rises 23:25:30 0° 229° (SW) 3,789 11.5 -10.1°
Reaches altitude 10° 23:28:49 10° 214° (SW) 2,880 10.5 -10.7°
Maximum altitude 23:33:57 22° 167° (SSE) 2,209 9.3 -11.6°
Drops below altitude 10° 23:39:18 10° 121° (ESE) 3,019 9.6 -12.6°
Enters shadow 23:39:24 10° 120° (ESE) 3,043 9.6 -12.6°
